This is the latest recevied weather packets stored in our database for station/object VE1DX. If no packets are shown the sender has not sent any weather packets the latest 10 day(s).
| Time | Temp. | Humidity | Pressure | Rain* | Wind** | Luminosity | Snow |
|---|---|---|---|---|---|---|---|
| 1777496116 | 5.56° C | 78% | 1020 hPa | 0 mm | - | - | - |
| 1777495816 | 5.56° C | 79% | 1019.9 hPa | 0 mm | - | - | - |
| 1777495516 | 5.56° C | 78% | 1020 hPa | 0 mm | - | - | - |
| 1777495216 | 6.11° C | 78% | 1020 hPa | 0 mm | - | - | - |
| 1777494916 | 6.11° C | 78% | 1020.1 hPa | 0 mm | - | - | - |
| 1777494616 | 6.11° C | 78% | 1020.1 hPa | 0 mm | - | - | - |
| 1777494316 | 6.11° C | 78% | 1020.1 hPa | 0 mm | - | - | - |
| 1777494016 | 6.11° C | 78% | 1020.1 hPa | 0 mm | - | - | - |
| 1777493716 | 6.11° C | 77% | 1020.1 hPa | 0 mm | - | - | - |
| 1777493416 | 6.11° C | 78% | 1020.1 hPa | 0 mm | - | - | - |
| 1777493116 | 6.11° C | 78% | 1020.1 hPa | 0 mm | - | - | - |
| 1777492816 | 6.11° C | 78% | 1020.2 hPa | 0 mm | - | - | - |
| 1777492516 | 6.11° C | 78% | 1020.2 hPa | 0 mm | - | - | - |
| 1777492216 | 6.67° C | 77% | 1020.2 hPa | 0 mm | - | - | - |
| 1777491916 | 6.67° C | 78% | 1020.2 hPa | 0 mm | - | - | - |
| 1777491616 | 6.11° C | 77% | 1020.3 hPa | 0 mm | - | - | - |
| 1777491316 | 6.67° C | 77% | 1020.3 hPa | 0 mm | - | - | - |
| 1777491016 | 6.67° C | 77% | 1020.3 hPa | 0 mm | - | - | - |
| 1777490716 | 6.67° C | 76% | 1020.2 hPa | 0 mm | - | - | - |
| 1777490416 | 6.67° C | 76% | 1020.2 hPa | 0 mm | - | - | - |
| 1777490116 | 6.67° C | 75% | 1020.2 hPa | 0 mm | - | - | - |
| 1777489816 | 7.22° C | 75% | 1020.3 hPa | 0 mm | - | - | - |
| 1777489516 | 7.22° C | 75% | 1020.5 hPa | 0 mm | - | - | - |
| 1777489216 | 7.22° C | 75% | 1020.6 hPa | 0 mm | - | - | - |
| 1777488916 | 7.78° C | 75% | 1020.6 hPa | 0 mm | - | - | - |
* Rain latest hour (hover to see other rain measurements)
** Current wind speed in m/s (hover to see current wind gust speed)